DECAYED

ISS DEB, 62376 (Decayed)

Orbit data source: Space-Track

ISS DEB, 62376 was space debris in LEO that was on an ISS related-mission or a former payload that was launched from the ISS. Debris objects in space refer to the collection of defunct objects orbiting the Earth. Examples of debris include non-operational satellites, rocket bodies, and fragments generated from explosions, collisions, or faulty payload assembly.

Not visible in the next 10 days
Identifier
62376, 1998-067XG
Orbit
Decayed
Country
Flag of CISCIS
Related business
Manufacturer
Unknown
Mission
Decayed spacecraft
Bus & Motor
Unknown
Mass
Unknown
Launch date (UTC)
1998-11-20 (28 years ago)
Launch vehicle
Unknown
Launch site
Tyuratam Missile And Space Complex (TTMTR)
Object type
Payload
Rocket body
Debris
Shape & HBR
Irr, 0.1 m
Radar Cross Section
0.015 m², Medium (>0.1 m² and < 1m²)

Expand to show TLE details & history
Last TLE update: 1 year ago

TLE from 1 year ago
0 ISS DEB
1 62376U 98067XG  25095.79024371  .04776885  11954-4  17468-2 0  9995
2 62376  51.6124 290.5973 0010647 277.8505  82.1305 16.23766836 16804
Epoch: 2025-04-05T18:57Z
TLE epoch observation values (Epoch: 2025-04-05T18:57:57.056Z)
Latitude
-0.0001°
Longitude
171.78017°
Altitude
209.153 km
Speed
7.783 km/s
True Right ascension
19h 22m 23s
True Declination
0° 00' 00"
Sunlit
Object was in daylight at epoch
Visualization orbit readout
Latitude
Unknown
Longitude
Unknown
Altitude
Unknown
Speed
Unknown
Apparent Right ascension
Unknown
Apparent Declination
Unknown
Sunlit
N/A
Visualization observer readout
Local Sidereal Time
02:48:19
Azimuth
Unknown
Elevation
Unknown
Doppler factor
Unknown
Orbital elements
Apogee altitude
216.887 km
Perigee altitude
202.858 km
Semi-major axis
6,588.01 km
Eccentricity
0.00106
Inclination
51.6124°
RAAN
290.5973°
Arg. of periapsis
277.8505°
True anomaly
82.25138°
Mean anomaly
82.1305°
Eccentric anomaly
82.19094°
Mean motion
4.05893 °/min
Orbital period
88.69 mins
BSTAR
0.0017468
Loading maneuver chart data...
Computing Atmospheric mass density...
Loading historical data...
Loading historical data...
Loading historical data...
Loading historical data...
Loading historical data...
Loading historical data...
Loading historical data...

Documentation

Showing up to 5 results
|